STARLINK-1612, 46164

Orbit data source: Space-Track

STARLINK-1612, 46164 is a payload satellite owned by SpaceX/Seattle (US) in LEO that was launched on Tue, 18 Aug 2020 UTC via an FALCON 9 launch vehicle from the Air Force Eastern Test Range (AFETR). Payload-class satellites include a variety of spacecraft equipped with specific instruments for various scientific and technological missions. These include communications satellites like Starlink; space stations such as the ISS; scientific satellites like the Hubble; Earth observation satellites from companies like Planet Labs, Umbra, and HawkEye 360; GPS; miniature CubeSats for education and research; and military/defense satellites.

Loading next visibility...
Identifier
46164, 2020-057AZ
Orbit
LEO
Country
Flag of USUS
Related business
Manufacturer
SpaceX/Seattle
Mission
Partially operational Commercial Communications
Bus & Motor
STARLINK, Unknown motor
Mass
260 kg wet, ~248 kg dry
Launch date (UTC)
2020-08-18 (5 years ago)
Launch vehicle
FALCON 9
Launch site
Air Force Eastern Test Range (AFETR)
Object type
Payload
Rocket body
Debris
Shape & HBR
Box + 1 Pan, 10.1 m
Radar Cross Section
13.562 m², Large (>1 m²)

Expand to show TLE details & history
Last TLE update: 2 days ago

TLE from 2 days ago
0 STARLINK-1612
1 46164U 20057AZ  25286.08903100  .00085805  00000-0  25073-2 0  9994
2 46164  53.0476 204.9881 0013817  70.5480 289.7013 15.34493185285844
Epoch: 2025-10-13T02:08Z
TLE epoch observation values (Epoch: 2025-10-13T02:08:12.278Z)
Latitude
-0°
Longitude
151.04012°
Altitude
460.141 km
Speed
7.64 km/s
True Right ascension
13h 39m 57s
True Declination
0° 00' 00"
Sunlit
Object was in daylight at epoch
Visualization orbit readout
Latitude
Unknown
Longitude
Unknown
Altitude
Unknown
Speed
Unknown
Apparent Right ascension
Unknown
Apparent Declination
Unknown
Sunlit
N/A
Visualization observer readout
Local Sidereal Time
11:34:02
Azimuth
Unknown
Elevation
Unknown
Doppler factor
Unknown
Orbital elements
Apogee altitude
472.153 km
Perigee altitude
453.249 km
Semi-major axis
6,840.838 km
Eccentricity
0.00138
Inclination
53.0476°
RAAN
204.9881°
Arg. of periapsis
70.548°
True anomaly
289.55215°
Mean anomaly
289.7013°
Eccentric anomaly
289.62673°
Mean motion
3.83601 °/min
Orbital period
93.85 mins
BSTAR
0.0025073
Loading maneuver chart data...
Computing Atmospheric mass density...
Loading historical data...
Loading historical data...
Loading historical data...
Loading historical data...
Loading historical data...
Loading historical data...
Loading historical data...

Documentation

Showing up to 5 results
|